Time,TemperatureF,DewpointF,PressureIn,WindDirection,WindDirectionDegrees,WindSpeedMPH,WindSpeedGustMPH,Humidity,HourlyPrecipIn,Conditions,Clouds,dailyrainin,SoftwareType,DateUTC
2013-03-04 00:13:00,34.2,32.0,29.58,NW,315,8.0,14.0,91,0.00,,,0.00,weatherlink.com 1.10,2013-03-04 05:13:00,
2013-03-04 00:28:00,34.0,32.0,29.58,NW,312,8.0,16.0,91,0.00,,,0.00,weatherlink.com 1.10,2013-03-04 05:28:00,
2013-03-04 00:43:00,34.0,32.0,29.58,West,273,7.0,15.0,91,0.00,,,0.00,weatherlink.com 1.10,2013-03-04 05:43:00,
2013-03-04 00:59:00,33.9,32.0,29.59,NW,326,8.0,14.0,92,0.00,,,0.00,weatherlink.com 1.10,2013-03-04 05:59:00,
2013-03-04 01:14:00,33.6,32.0,29.59,NW,312,5.0,14.0,92,0.00,,,0.00,weatherlink.com 1.10,2013-03-04 06:14:00,
2013-03-04 01:29:00,33.3,32.0,29.59,NW,311,8.0,15.0,93,0.00,,,0.00,weatherlink.com 1.10,2013-03-04 06:29:00,
2013-03-04 01:44:00,33.2,31.0,29.59,WNW,297,8.0,11.0,93,0.00,,,0.00,weatherlink.com 1.10,2013-03-04 06:44:00,
2013-03-04 01:59:00,33.1,32.0,29.59,NW,307,6.0,12.0,94,0.00,,,0.00,weatherlink.com 1.10,2013-03-04 06:59:00,
2013-03-04 02:14:00,32.8,31.0,29.58,WNW,302,12.0,14.0,94,0.00,,,0.00,weatherlink.com 1.10,2013-03-04 07:14:00,
2013-03-04 02:29:00,32.4,31.0,29.59,NW,311,9.0,12.0,94,0.00,,,0.00,weatherlink.com 1.10,2013-03-04 07:29:00,
2013-03-04 02:44:00,32.4,31.0,29.58,NW,319,9.0,11.0,94,0.00,,,0.00,weatherlink.com 1.10,2013-03-04 07:44:00,
2013-03-04 02:59:00,32.3,31.0,29.58,NW,307,7.0,13.0,94,0.00,,,0.00,weatherlink.com 1.10,2013-03-04 07:59:00,
2013-03-04 03:14:00,32.5,31.0,29.58,WSW,243,5.0,13.0,92,0.00,,,0.00,weatherlink.com 1.10,2013-03-04 08:14:00,
2013-03-04 03:29:00,32.6,30.0,29.58,NW,309,6.0,14.0,91,0.00,,,0.00,weatherlink.com 1.10,2013-03-04 08:29:00,
2013-03-04 03:44:00,32.7,30.0,29.59,WNW,302,10.0,11.0,91,0.00,,,0.00,weatherlink.com 1.10,2013-03-04 08:44:00,
2013-03-04 03:59:00,33.0,30.0,29.59,SE,131,4.0,12.0,89,0.00,,,0.00,weatherlink.com 1.10,2013-03-04 08:59:00,
2013-03-04 04:14:00,33.5,30.0,29.59,NW,326,10.0,16.0,85,0.00,,,0.00,weatherlink.com 1.10,2013-03-04 09:14:00,
2013-03-04 04:29:00,33.6,29.0,29.59,NW,315,9.0,21.0,82,0.00,,,0.00,weatherlink.com 1.10,2013-03-04 09:29:00,
2013-03-04 04:44:00,33.7,29.0,29.60,NNW,328,10.0,15.0,82,0.00,,,0.00,weatherlink.com 1.10,2013-03-04 09:44:00,
2013-03-04 04:59:00,33.6,28.0,29.60,West,281,12.0,17.0,80,0.00,,,0.00,weatherlink.com 1.10,2013-03-04 09:59:00,
2013-03-04 05:14:00,33.3,28.0,29.60,WNW,283,4.0,14.0,81,0.00,,,0.00,weatherlink.com 1.10,2013-03-04 10:14:00,
2013-03-04 05:29:00,33.0,28.0,29.60,NW,316,12.0,16.0,81,0.00,,,0.00,weatherlink.com 1.10,2013-03-04 10:29:00,
2013-03-04 05:44:00,32.8,28.0,29.60,WNW,302,7.0,16.0,81,0.00,,,0.00,weatherlink.com 1.10,2013-03-04 10:44:00,
2013-03-04 05:59:00,32.4,28.0,29.61,WNW,283,8.0,16.0,82,0.00,,,0.00,weatherlink.com 1.10,2013-03-04 10:59:00,
2013-03-04 06:14:00,32.2,27.0,29.61,NW,307,11.0,16.0,80,0.00,,,0.00,weatherlink.com 1.10,2013-03-04 11:14:00,
2013-03-04 06:29:00,32.2,27.0,29.61,WNW,297,9.0,16.0,80,0.00,,,0.00,weatherlink.com 1.10,2013-03-04 11:29:00,
2013-03-04 06:44:00,32.3,27.0,29.61,NNW,330,7.0,18.0,80,0.00,,,0.00,weatherlink.com 1.10,2013-03-04 11:44:00,
2013-03-04 06:59:00,32.6,27.0,29.61,WNW,294,11.0,16.0,79,0.00,,,0.00,weatherlink.com 1.10,2013-03-04 11:59:00,
2013-03-04 07:14:00,32.5,27.0,29.61,WNW,283,14.0,21.0,79,0.00,,,0.00,weatherlink.com 1.10,2013-03-04 12:14:00,
2013-03-04 07:29:00,32.1,26.0,29.61,West,278,12.0,23.0,79,0.00,,,0.00,weatherlink.com 1.10,2013-03-04 12:29:00,
2013-03-04 07:44:00,32.2,26.0,29.61,NW,314,13.0,23.0,78,0.00,,,0.00,weatherlink.com 1.10,2013-03-04 12:44:00,
2013-03-04 07:59:00,32.6,26.0,29.61,NW,312,21.0,27.0,75,0.00,,,0.00,weatherlink.com 1.10,2013-03-04 12:59:00,
2013-03-04 08:14:00,32.9,26.0,29.61,NW,304,14.0,27.0,75,0.00,,,0.00,weatherlink.com 1.10,2013-03-04 13:14:00,
2013-03-04 08:29:00,32.9,25.0,29.61,NW,305,21.0,29.0,74,0.00,,,0.00,weatherlink.com 1.10,2013-03-04 13:29:00,
2013-03-04 08:45:00,33.2,26.0,29.61,NW,314,16.0,33.0,74,0.00,,,0.00,weatherlink.com 1.10,2013-03-04 13:45:00,
2013-03-04 09:00:00,32.9,25.0,29.61,NW,323,19.0,26.0,74,0.00,,,0.00,weatherlink.com 1.10,2013-03-04 14:00:00,
2013-03-04 09:15:00,33.1,25.0,29.60,NW,322,19.0,29.0,72,0.00,,,0.00,weatherlink.com 1.10,2013-03-04 14:15:00,
2013-03-04 09:30:00,33.1,25.0,29.61,NW,317,16.0,26.0,72,0.00,,,0.00,weatherlink.com 1.10,2013-03-04 14:30:00,
2013-03-04 09:45:00,33.6,25.0,29.61,WNW,292,20.0,27.0,72,0.00,,,0.00,weatherlink.com 1.10,2013-03-04 14:45:00,
2013-03-04 10:00:00,33.8,26.0,29.61,WNW,300,16.0,25.0,72,0.00,,,0.00,weatherlink.com 1.10,2013-03-04 15:00:00,
2013-03-04 10:15:00,34.0,26.0,29.60,North,352,17.0,24.0,71,0.00,,,0.00,weatherlink.com 1.10,2013-03-04 15:15:00,
2013-03-04 10:30:00,34.1,25.0,29.60,WNW,302,11.0,24.0,69,0.00,,,0.00,weatherlink.com 1.10,2013-03-04 15:30:00,
2013-03-04 10:45:00,34.9,26.0,29.59,NNW,327,15.0,23.0,70,0.00,,,0.00,weatherlink.com 1.10,2013-03-04 15:45:00,
2013-03-04 11:00:00,35.5,26.0,29.60,NW,326,11.0,25.0,68,0.00,,,0.00,weatherlink.com 1.10,2013-03-04 16:00:00,
2013-03-04 11:15:00,35.1,24.0,29.60,WNW,289,17.0,29.0,64,0.00,,,0.00,weatherlink.com 1.10,2013-03-04 16:15:00,
2013-03-04 11:30:00,35.0,25.0,29.60,WNW,300,17.0,24.0,66,0.00,,,0.00,weatherlink.com 1.10,2013-03-04 16:30:00,
2013-03-04 11:45:00,36.1,25.0,29.59,NNW,327,13.0,28.0,64,0.00,,,0.00,weatherlink.com 1.10,2013-03-04 16:45:00,
2013-03-04 12:00:00,36.6,25.0,29.59,WNW,301,24.0,30.0,62,0.00,,,0.00,weatherlink.com 1.10,2013-03-04 17:00:00,
2013-03-04 12:15:00,36.9,25.0,29.58,NNW,338,13.0,23.0,62,0.00,,,0.00,weatherlink.com 1.10,2013-03-04 17:15:00,
2013-03-04 12:30:00,37.5,25.0,29.58,WNW,295,15.0,28.0,60,0.00,,,0.00,weatherlink.com 1.10,2013-03-04 17:30:00,
2013-03-04 12:45:00,37.9,26.0,29.57,NNW,330,16.0,26.0,62,0.00,,,0.00,weatherlink.com 1.10,2013-03-04 17:45:00,
2013-03-04 13:00:00,38.0,26.0,29.57,NW,317,11.0,27.0,62,0.00,,,0.00,weatherlink.com 1.10,2013-03-04 18:00:00,
2013-03-04 13:15:00,38.4,26.0,29.57,WNW,299,9.0,26.0,61,0.00,,,0.00,weatherlink.com 1.10,2013-03-04 18:15:00,
2013-03-04 13:30:00,38.1,25.0,29.57,WNW,293,24.0,25.0,59,0.00,,,0.00,weatherlink.com 1.10,2013-03-04 18:30:00,
2013-03-04 13:45:00,38.1,25.0,29.56,NW,326,18.0,24.0,59,0.00,,,0.00,weatherlink.com 1.10,2013-03-04 18:45:00,
2013-03-04 14:00:00,38.4,25.0,29.57,WNW,290,13.0,21.0,59,0.00,,,0.00,weatherlink.com 1.10,2013-03-04 19:00:00,
2013-03-04 14:15:00,38.2,24.0,29.57,WNW,290,9.0,25.0,58,0.00,,,0.00,weatherlink.com 1.10,2013-03-04 19:15:00,
2013-03-04 14:30:00,38.3,25.0,29.57,WNW,290,10.0,23.0,60,0.00,,,0.00,weatherlink.com 1.10,2013-03-04 19:30:00,
2013-03-04 14:45:00,38.6,24.0,29.57,NNW,332,12.0,22.0,57,0.00,,,0.00,weatherlink.com 1.10,2013-03-04 19:45:00,
2013-03-04 15:00:00,39.2,25.0,29.57,NNW,334,5.0,23.0,58,0.00,,,0.00,weatherlink.com 1.10,2013-03-04 20:00:00,
2013-03-04 15:15:00,39.0,25.0,29.57,NW,307,11.0,17.0,58,0.00,,,0.00,weatherlink.com 1.10,2013-03-04 20:15:00,
2013-03-04 15:30:00,38.6,26.0,29.57,NW,304,18.0,22.0,60,0.00,,,0.00,weatherlink.com 1.10,2013-03-04 20:30:00,
2013-03-04 15:45:00,38.2,28.0,29.57,NNW,336,17.0,22.0,66,0.00,,,0.00,weatherlink.com 1.10,2013-03-04 20:45:00,
2013-03-04 16:00:00,37.3,29.0,29.58,NW,315,6.0,20.0,71,0.00,,,0.00,weatherlink.com 1.10,2013-03-04 21:00:00,
2013-03-04 16:15:00,36.8,28.0,29.58,NW,316,15.0,21.0,71,0.00,,,0.00,weatherlink.com 1.10,2013-03-04 21:15:00,
2013-03-04 16:30:00,36.7,27.0,29.58,WNW,290,20.0,21.0,69,0.00,,,0.00,weatherlink.com 1.10,2013-03-04 21:30:00,
2013-03-04 16:45:00,37.1,28.0,29.59,West,280,9.0,16.0,69,0.00,,,0.00,weatherlink.com 1.10,2013-03-04 21:45:00,
2013-03-04 17:00:00,37.6,26.0,29.59,WNW,302,15.0,18.0,64,0.00,,,0.00,weatherlink.com 1.10,2013-03-04 22:00:00,
2013-03-04 17:15:00,38.0,27.0,29.60,NNW,333,16.0,21.0,66,0.00,,,0.00,weatherlink.com 1.10,2013-03-04 22:15:00,
2013-03-04 17:30:00,37.7,28.0,29.60,WNW,297,17.0,25.0,69,0.00,,,0.00,weatherlink.com 1.10,2013-03-04 22:30:00,
2013-03-04 17:45:00,37.3,30.0,29.61,NW,319,10.0,20.0,74,0.00,,,0.00,weatherlink.com 1.10,2013-03-04 22:45:00,
2013-03-04 18:00:00,36.6,30.0,29.61,NW,317,9.0,28.0,77,0.00,,,0.00,weatherlink.com 1.10,2013-03-04 23:00:00,
2013-03-04 18:15:00,35.6,30.0,29.62,NNW,342,10.0,24.0,80,0.00,,,0.00,weatherlink.com 1.10,2013-03-04 23:15:00,
2013-03-04 18:30:00,34.8,31.0,29.63,NW,326,15.0,23.0,85,0.00,,,0.00,weatherlink.com 1.10,2013-03-04 23:30:00,
2013-03-04 18:45:00,34.3,31.0,29.64,NNW,332,22.0,30.0,86,0.00,,,0.00,weatherlink.com 1.10,2013-03-04 23:45:00,
2013-03-04 19:00:00,34.5,31.0,29.64,NNW,333,13.0,23.0,85,0.00,,,0.00,weatherlink.com 1.10,2013-03-05 00:00:00,
2013-03-04 19:15:00,33.6,31.0,29.64,NW,311,25.0,27.0,90,0.00,,,0.00,weatherlink.com 1.10,2013-03-05 00:15:00,
2013-03-04 19:30:00,33.3,31.0,29.65,WNW,301,20.0,25.0,91,0.00,,,0.00,weatherlink.com 1.10,2013-03-05 00:30:00,
2013-03-04 19:45:00,33.0,31.0,29.66,NNW,335,17.0,28.0,92,0.00,,,0.00,weatherlink.com 1.10,2013-03-05 00:45:00,
2013-03-04 20:00:00,32.9,31.0,29.65,NW,310,28.0,28.0,91,0.00,,,0.00,weatherlink.com 1.10,2013-03-05 01:00:00,
2013-03-04 20:15:00,32.9,31.0,29.66,NW,315,15.0,25.0,92,0.00,,,0.00,weatherlink.com 1.10,2013-03-05 01:15:00,
2013-03-04 20:30:00,32.5,31.0,29.66,NNW,330,20.0,26.0,92,0.00,,,0.00,weatherlink.com 1.10,2013-03-05 01:30:00,
2013-03-04 20:45:00,32.6,30.0,29.66,West,278,16.0,24.0,90,0.00,,,0.00,weatherlink.com 1.10,2013-03-05 01:45:00,
2013-03-04 21:00:00,32.7,30.0,29.66,NNW,333,21.0,24.0,90,0.00,,,0.00,weatherlink.com 1.10,2013-03-05 02:00:00,
2013-03-04 21:16:00,32.9,31.0,29.66,NW,321,18.0,20.0,91,0.00,,,0.00,weatherlink.com 1.10,2013-03-05 02:16:00,
2013-03-04 21:31:00,32.9,30.0,29.67,NNW,338,11.0,23.0,90,0.00,,,0.00,weatherlink.com 1.10,2013-03-05 02:31:00,
2013-03-04 21:46:00,33.4,30.0,29.66,NW,324,15.0,28.0,86,0.00,,,0.00,weatherlink.com 1.10,2013-03-05 02:46:00,
2013-03-04 22:01:00,33.7,30.0,29.67,NW,318,21.0,32.0,85,0.00,,,0.00,weatherlink.com 1.10,2013-03-05 03:01:00,
2013-03-04 22:16:00,33.7,29.0,29.67,WNW,288,20.0,26.0,84,0.00,,,0.00,weatherlink.com 1.10,2013-03-05 03:16:00,
2013-03-04 22:31:00,33.6,29.0,29.67,West,259,11.0,22.0,83,0.00,,,0.00,weatherlink.com 1.10,2013-03-05 03:31:00,
2013-03-04 22:46:00,33.2,29.0,29.67,NW,317,18.0,25.0,85,0.00,,,0.00,weatherlink.com 1.10,2013-03-05 03:46:00,
2013-03-04 23:01:00,33.0,29.0,29.68,NW,314,9.0,24.0,86,0.00,,,0.00,weatherlink.com 1.10,2013-03-05 04:01:00,
2013-03-04 23:16:00,33.5,29.0,29.68,NNW,332,17.0,22.0,82,0.00,,,0.00,weatherlink.com 1.10,2013-03-05 04:16:00,
2013-03-04 23:31:00,33.9,28.0,29.68,NW,319,12.0,28.0,80,0.00,,,0.00,weatherlink.com 1.10,2013-03-05 04:31:00,
2013-03-04 23:46:00,34.0,28.0,29.68,NW,318,13.0,25.0,78,0.00,,,0.00,weatherlink.com 1.10,2013-03-05 04:46:00,